Location: *
(46.1333°S, 161.2167°W)
Time: 10:22:00
(UTC+00:00)

Cosmos 2298 Rocket - Pass Details

Date: 28 October 2020
Orbit: 777 x 783 km, 74.0° (Epoch: 25 November)

Event Time Altitude Azimuth Distance (km) Brightness Sun altitude
Exits shadow 10:33:16 29° 107° (ESE) 1,412 5.4 -30.5°
Drops below altitude 10° 10:36:43 10° 142° (SE) 2,373 7.1 -30.5°
Sets 10:39:19 0° 150° (SSE) 3,310 8.2 -30.5°
